sat.trackr.live / text

‹ back to catalog

STARLINK-36923

NORAD 68016 · 2026-040B

PAYLOAD ACTIVE UNKNOWN

§ Identity

Operator
Country
US
Launch date
2026-03-01
Launch site
AFWTR
Launch vehicle
Mass (kg)
RCS (m²)

Purposes: comms

External: N2YO · Heavens-Above · Gunter

§ Orbital elements

Epoch: 2026-09-20T02:38:07.888128Z

Period
93.91 min
Inclination
97.2846°
Eccentricity
0.0002139
Mean motion
15.33458829 rev/d
Perigee alt
464.0 km
Apogee alt
467.0 km
Semi-major
6,843.6 km
B*
7.1297e-4
RAAN
210.3865°
Arg perigee
283.4536°
Mean anomaly
76.6468°
Rev number
3,125

§ Raw data

STARLINK-369231 68016U 26040B   26263.10981352  .00023023  00000+0  71297-3 0  99992 68016  97.2846 210.3865 0002139 283.4536  76.6468 15.33458829 31256

JSON: /api/v1/satellites/68016 · /tle

For live sub-satellite position, see the globe view (requires WebGL).

§ Visibility from observer

Set your observer location to see the next 7 days of passes ≥ 10°. The values pass through the URL so the page stays shareable.

No JS? Fill the form by hand. The geolocation button needs JavaScript.